Weather Roundup
Issued by NWS

Home | Current Version | Previous Version | Graphics & Text | Print | Product List | Glossary Off
Versions: 1 2 3 4 5 6 7 8 9 10 11 12 13 14 15 16 17 18 19 20 21 22 23 24 25 26 27 28 29 30 31 32 33 34 35 36 37 38 39 40 41 42 43 44 45 46 47 48 49 50

000
NZUS93 KARX 241659
HRRWXR

CURRENT HOURLY OBSERVATIONS ACROSS
MUCH OF THE UPPER MISSISSIPPI VALLEY
NATIONAL WEATHER SERVICE LA CROSSE WI
1200 PM CDT SAT SEP 24 2016


...SOUTHEAST MINNESOTA...


CITY           SKY/WX    TMP DP  RH WIND       PRES   REMARKS
ROCHESTER      CLOUDY    67  64  90 SE15G22   30.13S
ROCHESTER/MAYO   N/A     64  65 100 SE8G16    30.14S
WINONA         CLOUDY    66  63  88 SE12      30.15F
AUSTIN         CLOUDY    66  63  88 SE7       30.12S FOG
ALBERT LEA     CLOUDY    70  64  83 SE13G20   30.09F FOG
DODGE CENTER   CLOUDY    66  63  88 SE14G20   30.11F
PRESTON        CLOUDY    64  62  91 SE13      30.15F FOG
OWATONNA       MOSUNNY   70  63  78 SE15G23   30.09S
FARIBAULT      CLOUDY    70  64  83 SE9G21    30.09S
$$

...ELSEWHERE IN MINNESOTA...


CITY           SKY/WX    TMP DP  RH WIND       PRES   REMARKS
MINNEAPOLIS    CLOUDY    67  62  84 SE15G23   30.08F
INTNL FALLS    CLOUDY    63  56  78 SE13G20   30.06F
DULUTH         FOG       58  58 100 SE10      30.14F VSB 3/4
RED WING       CLOUDY    66  63  88 SE12G18   30.10F
REDWOOD FALLS  SUNNY     75  65  70 SE22G30   29.98F
MANKATO        PTSUNNY   71  65  81 SE16      30.05F
WORTHINGTON    MOSUNNY   79  67  66 SE20      29.96F
FAIRMONT       CLOUDY    73  66  78 SE14G24   30.03F
$$

...SOUTHWEST WISCONSIN...


CITY           SKY/WX    TMP DP  RH WIND       PRES   REMARKS
LA CROSSE      CLOUDY    69  63  81 SE8       30.16S
PRAIRIE DU CHI CLOUDY    67  62  83 SE5       30.16R
BOSCOBEL       CLOUDY    69  63  81 NE5       30.18R
LONE ROCK      NOT AVBL
PLATTEVILLE    CLOUDY    67  65  93 E10       30.17F
FORT MC COY    CLOUDY    65  60  83 E12       30.19F
CAMP DOUGLAS   CLOUDY    61  59  94 E9        30.21S
MAUSTON-NEW LI CLOUDY    62  60  93 SE6       30.20F
VIROQUA        CLOUDY    65  61  88 E9        30.19S
WIS DELLS      NOT AVBL
$$

...ELSEWHERE IN WISCONSIN...


CITY           SKY/WX    TMP DP  RH WIND       PRES   REMARKS
MILWAUKEE      CLOUDY    67  60  78 E8        30.23F
MADISON        CLOUDY    65  59  81 E12       30.21S
GREEN BAY      PTSUNNY   65  54  67 SE7       30.25F
EAU CLAIRE     NOT AVBL
BLACK RVR FLS  CLOUDY    63  63  99 E7        30.19F
MEDFORD        CLOUDY    60  60 100 SE10      30.22S
WAUSAU         CLOUDY    63  54  72 SE12      30.22F
WIS RAPIDS     CLOUDY    64  58  80 SE9       30.24S
MARSHFIELD     CLOUDY    62  57  83 SE13      30.22S
RICE LAKE      NOT AVBL
$$

...NORTHEAST IOWA...


CITY           SKY/WX    TMP DP  RH WIND       PRES   REMARKS
WATERLOO       CLOUDY    70  65  84 SE12      30.11F HAZE
DUBUQUE        CLOUDY    67  64  90 SE12      30.17S
DECORAH        CLOUDY    66  66 100 SE9       30.15S FOG
MASON CITY     NOT AVBL
CHARLES CITY   CLOUDY    68  68 100 SE10G17   30.13S FOG
OELWEIN        CLOUDY    68  66  94 SE10      30.15F FOG
$$

...ELSEWHERE IN IOWA...


CITY           SKY/WX    TMP DP  RH WIND       PRES   REMARKS
DES MOINES     MOSUNNY   83  68  60 SE13      30.04F
IOWA CITY      CLOUDY    73  67  81 E7        30.14S
FORT DODGE     SUNNY     77  66  69 SE14      30.04F
MARSHALLTOWN   SUNNY     74  69  85 SE13      30.09F
CEDAR RAPIDS   CLOUDY    71  69  93 E10       30.13S FOG
$$

...NORTHERN ILLINOIS...


CITY           SKY/WX    TMP DP  RH WIND       PRES   REMARKS
CHICAGO-OHARE  CLOUDY    69  62  78 NE10      30.19F
CHICAGO-MIDWAY PTSUNNY   73  63  70 NE8       30.19S
MOLINE         CLOUDY    73  67  81 E9        30.14F HAZE
ROCKFORD       CLOUDY    71  63  75 E7        30.19F
PEORIA         SUNNY     79  70  74 E6        30.13F
$$

NOTE: "FAIR" INDICATES FEW OR NO CLOUDS BELOW 12,000 FEET WITH NO
SIGNIFICANT WEATHER AND/OR OBSTRUCTIONS TO VISIBILITY. WIND
SPEEDS ARE IN MILES-PER-HOUR.




USA.gov is the U.S. government's official web portal to all federal, state and local government web resources and services.